Time,TemperatureF,DewpointF,PressureIn,WindDirection,WindDirectionDegrees,WindSpeedMPH,WindSpeedGustMPH,Humidity,HourlyPrecipIn,Conditions,Clouds,dailyrainin,SoftwareType,DateUTC
2013-01-09 00:03:00,34.0,27.0,-100.00,SSW,200,4.0,6.0,71,0.00,,,-99.99,,2013-01-09 05:03:00,
2013-01-09 00:12:00,34.0,27.0,-100.00,South,173,3.0,6.0,71,0.00,,,-99.99,,2013-01-09 05:12:00,
2013-01-09 00:22:00,36.0,28.0,-100.00,South,189,4.0,6.0,73,0.00,,,-99.99,,2013-01-09 05:22:00,
2013-01-09 00:33:00,36.0,28.0,-100.00,SSE,166,2.0,6.0,72,0.00,,,-99.99,,2013-01-09 05:33:00,
2013-01-09 00:43:00,34.0,27.0,-100.00,SSE,159,6.0,8.0,72,0.00,,,-99.99,,2013-01-09 05:43:00,
2013-01-09 00:52:00,36.0,30.0,-100.00,SSE,148,3.0,8.0,73,0.00,,,-99.99,,2013-01-09 05:52:00,
2013-01-09 01:02:00,37.0,30.0,-100.00,South,173,2.0,8.0,73,0.00,,,-99.99,,2013-01-09 06:02:00,
2013-01-09 01:12:00,37.0,30.0,-100.00,South,182,3.0,8.0,73,0.00,,,-99.99,,2013-01-09 06:12:00,
2013-01-09 01:22:00,35.0,27.0,-100.00,SSE,148,3.0,8.0,71,0.00,,,-99.99,,2013-01-09 06:22:00,
2013-01-09 01:32:00,36.0,30.0,-100.00,SSE,160,2.0,8.0,73,0.00,,,-99.99,,2013-01-09 06:32:00,
2013-01-09 01:42:00,36.0,30.0,-100.00,South,173,2.0,8.0,73,0.00,,,-99.99,,2013-01-09 06:42:00,
2013-01-09 01:52:00,36.0,28.0,-100.00,SSE,168,2.0,8.0,73,0.00,,,-99.99,,2013-01-09 06:52:00,
2013-01-09 02:02:00,35.0,28.0,-100.00,South,173,2.0,8.0,72,0.00,,,-99.99,,2013-01-09 07:02:00,
2013-01-09 02:12:00,36.0,30.0,-100.00,SSE,165,2.0,8.0,73,0.00,,,-99.99,,2013-01-09 07:12:00,
2013-01-09 02:22:00,38.0,30.0,-100.00,SSE,160,3.0,8.0,73,0.00,,,-99.99,,2013-01-09 07:22:00,
2013-01-09 02:32:00,37.0,30.0,-100.00,South,182,3.0,8.0,73,0.00,,,-99.99,,2013-01-09 07:32:00,
2013-01-09 02:42:00,36.0,28.0,-100.00,South,187,4.0,8.0,71,0.00,,,-99.99,,2013-01-09 07:42:00,
2013-01-09 02:52:00,38.0,30.0,-100.00,South,182,4.0,8.0,72,0.00,,,-99.99,,2013-01-09 07:52:00,
2013-01-09 03:02:00,39.0,32.0,-100.00,South,179,6.0,10.0,72,0.00,,,-99.99,,2013-01-09 08:02:00,
2013-01-09 03:12:00,38.0,30.0,-100.00,South,190,6.0,10.0,72,0.00,,,-99.99,,2013-01-09 08:12:00,
2013-01-09 03:22:00,38.0,30.0,-100.00,South,170,6.0,10.0,72,0.00,,,-99.99,,2013-01-09 08:22:00,
2013-01-09 03:32:00,36.0,28.0,-100.00,South,179,5.0,10.0,69,0.00,,,-99.99,,2013-01-09 08:32:00,
2013-01-09 03:43:00,36.0,28.0,-100.00,South,184,6.0,10.0,69,0.00,,,-99.99,,2013-01-09 08:43:00,
2013-01-09 03:53:00,35.0,28.0,-100.00,SE,141,4.0,10.0,71,0.00,,,-99.99,,2013-01-09 08:53:00,
2013-01-09 04:02:00,35.0,28.0,-100.00,WSW,238,5.0,10.0,71,0.00,,,-99.99,,2013-01-09 09:02:00,
2013-01-09 04:12:00,36.0,28.0,-100.00,SE,146,3.0,10.0,72,0.00,,,-99.99,,2013-01-09 09:12:00,
2013-01-09 04:22:00,35.0,28.0,-100.00,South,182,2.0,10.0,72,0.00,,,-99.99,,2013-01-09 09:22:00,
2013-01-09 04:32:00,37.0,30.0,-100.00,South,187,6.0,10.0,73,0.00,,,-99.99,,2013-01-09 09:32:00,
2013-01-09 04:42:00,37.0,30.0,-100.00,South,187,5.0,10.0,72,0.00,,,-99.99,,2013-01-09 09:42:00,
2013-01-09 04:53:00,35.0,28.0,-100.00,WSW,244,4.0,10.0,71,0.00,,,-99.99,,2013-01-09 09:53:00,
2013-01-09 05:02:00,37.0,30.0,-100.00,South,189,3.0,10.0,72,0.00,,,-99.99,,2013-01-09 10:02:00,
2013-01-09 05:12:00,35.0,27.0,-100.00,SSE,165,4.0,10.0,71,0.00,,,-99.99,,2013-01-09 10:12:00,
2013-01-09 05:22:00,38.0,30.0,-100.00,SE,136,4.0,10.0,72,0.00,,,-99.99,,2013-01-09 10:22:00,
2013-01-09 05:32:00,35.0,28.0,-100.00,South,187,4.0,10.0,71,0.00,,,-99.99,,2013-01-09 10:32:00,
2013-01-09 05:42:00,37.0,28.0,-100.00,SSE,156,6.0,10.0,69,0.00,,,-99.99,,2013-01-09 10:42:00,
2013-01-09 05:52:00,38.0,30.0,-100.00,South,177,6.0,10.0,69,0.00,,,-99.99,,2013-01-09 10:52:00,
2013-01-09 06:02:00,35.0,27.0,-100.00,South,177,5.0,10.0,68,0.00,,,-99.99,,2013-01-09 11:02:00,
2013-01-09 06:12:00,35.0,27.0,-100.00,SSE,159,3.0,10.0,69,0.00,,,-99.99,,2013-01-09 11:12:00,
2013-01-09 06:22:00,38.0,30.0,-100.00,SSW,204,3.0,10.0,69,0.00,,,-99.99,,2013-01-09 11:22:00,
2013-01-09 06:33:00,36.0,27.0,-100.00,SSW,200,6.0,10.0,68,0.00,,,-99.99,,2013-01-09 11:33:00,
2013-01-09 06:42:00,36.0,27.0,-100.00,South,180,7.0,10.0,68,0.00,,,-99.99,,2013-01-09 11:42:00,
2013-01-09 06:53:00,38.0,30.0,-100.00,WNW,302,6.0,10.0,69,0.00,,,-99.99,,2013-01-09 11:53:00,
2013-01-09 07:03:00,35.0,27.0,-100.00,SSW,201,7.0,10.0,67,0.00,,,-99.99,,2013-01-09 12:03:00,
2013-01-09 07:12:00,36.0,27.0,-100.00,South,169,6.0,10.0,68,0.00,,,-99.99,,2013-01-09 12:12:00,
2013-01-09 07:23:00,36.0,27.0,-100.00,South,176,6.0,10.0,66,0.00,,,-99.99,,2013-01-09 12:23:00,
2013-01-09 07:33:00,36.0,27.0,-100.00,South,182,6.0,10.0,67,0.00,,,-99.99,,2013-01-09 12:33:00,
2013-01-09 07:43:00,36.0,27.0,-100.00,SE,141,5.0,10.0,67,0.00,,,-99.99,,2013-01-09 12:43:00,
2013-01-09 07:52:00,36.0,27.0,-100.00,SW,221,6.0,10.0,67,0.00,,,-99.99,,2013-01-09 12:52:00,
2013-01-09 08:03:00,36.0,27.0,-100.00,SSE,151,5.0,10.0,67,0.00,,,-99.99,,2013-01-09 13:03:00,
2013-01-09 08:12:00,37.0,28.0,-100.00,SSW,208,5.0,10.0,67,0.00,,,-99.99,,2013-01-09 13:12:00,
2013-01-09 08:23:00,38.0,28.0,-100.00,South,173,6.0,10.0,66,0.00,,,-99.99,,2013-01-09 13:23:00,
2013-01-09 08:33:00,37.0,28.0,-100.00,South,177,4.0,10.0,66,0.00,,,-99.99,,2013-01-09 13:33:00,
2013-01-09 08:43:00,38.0,28.0,-100.00,South,186,4.0,10.0,66,0.00,,,-99.99,,2013-01-09 13:43:00,
2013-01-09 08:52:00,43.0,32.0,-100.00,SSE,165,4.0,10.0,64,1.14,,,-99.99,,2013-01-09 13:52:00,
2013-01-09 09:03:00,44.0,34.0,-100.00,West,261,6.0,10.0,68,0.00,,,-99.99,,2013-01-09 14:03:00,
2013-01-09 09:12:00,43.0,34.0,-100.00,SW,235,6.0,10.0,72,6.22,,,-99.99,,2013-01-09 14:12:00,
2013-01-09 09:23:00,42.0,34.0,-100.00,SSW,206,3.0,10.0,73,2.83,,,-99.99,,2013-01-09 14:23:00,
2013-01-09 09:33:00,41.0,32.0,-100.00,WSW,249,2.0,10.0,75,0.00,,,-99.99,,2013-01-09 14:33:00,
2013-01-09 09:43:00,42.0,34.0,-100.00,NW,309,4.0,10.0,77,0.00,,,-99.99,,2013-01-09 14:43:00,
2013-01-09 09:53:00,42.0,34.0,-100.00,WSW,245,2.0,10.0,77,0.00,,,-99.99,,2013-01-09 14:53:00,
2013-01-09 10:03:00,41.0,34.0,-100.00,West,275,5.0,10.0,77,0.00,,,-99.99,,2013-01-09 15:03:00,
2013-01-09 10:13:00,42.0,34.0,-100.00,SW,223,6.0,10.0,76,0.00,,,-99.99,,2013-01-09 15:13:00,
2013-01-09 10:23:00,43.0,36.0,-100.00,SW,220,5.0,10.0,76,0.00,,,-99.99,,2013-01-09 15:23:00,
2013-01-09 10:33:00,42.0,34.0,-100.00,WSW,237,4.0,10.0,75,0.00,,,-99.99,,2013-01-09 15:33:00,
2013-01-09 10:43:00,43.0,34.0,-100.00,SSE,159,4.0,10.0,73,0.00,,,-99.99,,2013-01-09 15:43:00,
2013-01-09 10:53:00,44.0,34.0,-100.00,NW,310,4.0,10.0,72,0.00,,,-99.99,,2013-01-09 15:53:00,
2013-01-09 11:03:00,47.0,37.0,-100.00,SSW,206,4.0,10.0,72,0.00,,,-99.99,,2013-01-09 16:03:00,
2013-01-09 11:12:00,45.0,34.0,-100.00,West,271,6.0,10.0,69,0.00,,,-99.99,,2013-01-09 16:12:00,
2013-01-09 11:23:00,47.0,37.0,-100.00,SW,214,9.0,12.0,69,0.00,,,-99.99,,2013-01-09 16:23:00,
2013-01-09 11:33:00,46.0,36.0,-100.00,WSW,237,9.0,12.0,68,0.00,,,-99.99,,2013-01-09 16:33:00,
2013-01-09 11:43:00,46.0,36.0,-100.00,West,266,9.0,12.0,68,0.00,,,-99.99,,2013-01-09 16:43:00,
2013-01-09 11:53:00,46.0,36.0,-100.00,WNW,285,9.0,12.0,69,0.00,,,-99.99,,2013-01-09 16:53:00,
2013-01-09 12:03:00,46.0,36.0,-100.00,WNW,285,11.0,14.0,67,0.00,,,-99.99,,2013-01-09 17:03:00,
2013-01-09 12:12:00,47.0,34.0,-100.00,WSW,247,12.0,17.0,64,0.00,,,-99.99,,2013-01-09 17:12:00,
2013-01-09 12:23:00,47.0,34.0,-100.00,West,271,13.0,17.0,64,0.00,,,-99.99,,2013-01-09 17:23:00,
2013-01-09 12:33:00,47.0,34.0,-100.00,SW,232,12.0,17.0,63,0.00,,,-99.99,,2013-01-09 17:33:00,
2013-01-09 12:43:00,47.0,34.0,-100.00,West,264,12.0,17.0,60,0.00,,,-99.99,,2013-01-09 17:43:00,
2013-01-09 12:53:00,47.0,32.0,-100.00,West,259,16.0,21.0,58,0.00,,,-99.99,,2013-01-09 17:53:00,
2013-01-09 13:03:00,47.0,32.0,-100.00,West,276,14.0,21.0,56,0.00,,,-99.99,,2013-01-09 18:03:00,
2013-01-09 13:12:00,48.0,32.0,-100.00,WNW,285,13.0,21.0,55,0.00,,,-99.99,,2013-01-09 18:12:00,
2013-01-09 13:24:00,48.0,32.0,-100.00,West,264,11.0,21.0,55,0.00,,,-99.99,,2013-01-09 18:24:00,
2013-01-09 13:33:00,49.0,32.0,-100.00,WSW,244,10.0,21.0,51,0.00,,,-99.99,,2013-01-09 18:33:00,
2013-01-09 13:43:00,49.0,32.0,-100.00,WNW,289,9.0,21.0,50,0.00,,,-99.99,,2013-01-09 18:43:00,
2013-01-09 13:53:00,49.0,32.0,-100.00,WNW,290,9.0,21.0,50,0.00,,,-99.99,,2013-01-09 18:53:00,
2013-01-09 14:03:00,48.0,30.0,-100.00,West,278,11.0,21.0,47,0.00,,,-99.99,,2013-01-09 19:03:00,
2013-01-09 14:13:00,50.0,30.0,-100.00,WSW,252,12.0,21.0,45,0.00,,,-99.99,,2013-01-09 19:13:00,
2013-01-09 14:23:00,49.0,30.0,-100.00,WSW,238,12.0,21.0,45,0.00,,,-99.99,,2013-01-09 19:23:00,
2013-01-09 14:33:00,49.0,28.0,-100.00,WSW,256,12.0,21.0,42,0.00,,,-99.99,,2013-01-09 19:33:00,
2013-01-09 14:43:00,50.0,28.0,-100.00,West,271,12.0,21.0,41,0.00,,,-99.99,,2013-01-09 19:43:00,
2013-01-09 14:52:00,49.0,27.0,-100.00,WNW,296,14.0,21.0,41,0.00,,,-99.99,,2013-01-09 19:52:00,
2013-01-09 15:03:00,49.0,27.0,-100.00,NW,304,12.0,21.0,41,0.00,,,-99.99,,2013-01-09 20:03:00,
2013-01-09 15:12:00,48.0,27.0,-100.00,WNW,285,12.0,21.0,42,0.00,,,-99.99,,2013-01-09 20:12:00,
2013-01-09 15:23:00,49.0,28.0,-100.00,West,276,13.0,21.0,42,0.00,,,-99.99,,2013-01-09 20:23:00,
2013-01-09 15:33:00,48.0,27.0,-100.00,WSW,240,15.0,24.0,42,0.00,,,-99.99,,2013-01-09 20:33:00,
2013-01-09 15:43:00,49.0,27.0,-100.00,WNW,286,11.0,24.0,42,0.00,,,-99.99,,2013-01-09 20:43:00,
2013-01-09 15:53:00,48.0,27.0,-100.00,West,280,14.0,24.0,42,0.00,,,-99.99,,2013-01-09 20:53:00,
2013-01-09 16:03:00,48.0,27.0,-100.00,WSW,251,11.0,24.0,42,0.00,,,-99.99,,2013-01-09 21:03:00,
2013-01-09 16:13:00,48.0,28.0,-100.00,West,259,14.0,24.0,44,0.00,,,-99.99,,2013-01-09 21:13:00,
2013-01-09 16:23:00,48.0,28.0,-100.00,WNW,289,11.0,24.0,45,0.00,,,-99.99,,2013-01-09 21:23:00,
2013-01-09 16:33:00,47.0,28.0,-100.00,West,278,9.0,24.0,46,0.00,,,-99.99,,2013-01-09 21:33:00,
2013-01-09 16:43:00,48.0,28.0,-100.00,WSW,244,9.0,24.0,45,0.00,,,-99.99,,2013-01-09 21:43:00,
2013-01-09 16:52:00,48.0,28.0,-100.00,WSW,251,13.0,24.0,46,0.00,,,-99.99,,2013-01-09 21:52:00,
2013-01-09 17:03:00,47.0,28.0,-100.00,West,264,11.0,24.0,46,0.00,,,-99.99,,2013-01-09 22:03:00,
2013-01-09 17:12:00,46.0,27.0,-100.00,West,278,12.0,24.0,46,0.00,,,-99.99,,2013-01-09 22:12:00,
2013-01-09 17:23:00,45.0,27.0,-100.00,WSW,258,13.0,24.0,47,0.00,,,-99.99,,2013-01-09 22:23:00,
2013-01-09 17:33:00,45.0,27.0,-100.00,SW,216,9.0,24.0,47,0.00,,,-99.99,,2013-01-09 22:33:00,
2013-01-09 17:43:00,45.0,28.0,-100.00,West,265,11.0,24.0,50,0.00,,,-99.99,,2013-01-09 22:43:00,
2013-01-09 17:52:00,44.0,28.0,-100.00,WNW,289,11.0,24.0,51,0.00,,,-99.99,,2013-01-09 22:52:00,
2013-01-09 18:03:00,43.0,27.0,-100.00,West,264,15.0,24.0,51,0.00,,,-99.99,,2013-01-09 23:03:00,
2013-01-09 18:13:00,45.0,30.0,-100.00,West,276,11.0,24.0,53,0.00,,,-99.99,,2013-01-09 23:13:00,
2013-01-09 18:23:00,44.0,28.0,-100.00,WNW,285,12.0,24.0,51,0.00,,,-99.99,,2013-01-09 23:23:00,
2013-01-09 18:33:00,43.0,28.0,-100.00,WNW,293,11.0,24.0,53,0.00,,,-99.99,,2013-01-09 23:33:00,
2013-01-09 18:43:00,43.0,28.0,-100.00,WNW,282,11.0,24.0,54,0.00,,,-99.99,,2013-01-09 23:43:00,
2013-01-09 18:52:00,43.0,28.0,-100.00,WNW,283,9.0,24.0,54,0.00,,,-99.99,,2013-01-09 23:52:00,
2013-01-09 19:03:00,43.0,28.0,-100.00,West,279,10.0,24.0,54,0.00,,,-99.99,,2013-01-10 00:03:00,
2013-01-09 19:12:00,43.0,28.0,-100.00,West,272,10.0,24.0,55,0.00,,,-99.99,,2013-01-10 00:12:00,
2013-01-09 19:22:00,43.0,28.0,-100.00,West,272,11.0,24.0,55,0.00,,,-99.99,,2013-01-10 00:22:00,
2013-01-09 19:32:00,44.0,28.0,-100.00,SSW,206,11.0,24.0,54,0.00,,,-99.99,,2013-01-10 00:32:00,
2013-01-09 19:42:00,43.0,28.0,-100.00,West,266,9.0,24.0,55,0.00,,,-99.99,,2013-01-10 00:42:00,
2013-01-09 19:53:00,43.0,28.0,-100.00,NW,312,11.0,24.0,55,0.00,,,-99.99,,2013-01-10 00:53:00,
2013-01-09 20:02:00,43.0,28.0,-100.00,West,268,11.0,24.0,55,0.00,,,-99.99,,2013-01-10 01:02:00,
2013-01-09 20:12:00,43.0,28.0,-100.00,WNW,288,13.0,24.0,55,0.00,,,-99.99,,2013-01-10 01:12:00,
2013-01-09 20:22:00,42.0,28.0,-100.00,WSW,258,12.0,24.0,55,0.00,,,-99.99,,2013-01-10 01:22:00,
2013-01-09 20:33:00,42.0,28.0,-100.00,WNW,288,11.0,24.0,55,0.00,,,-99.99,,2013-01-10 01:33:00,
2013-01-09 20:43:00,42.0,28.0,-100.00,West,279,11.0,24.0,56,0.00,,,-99.99,,2013-01-10 01:43:00,
2013-01-09 20:52:00,43.0,28.0,-100.00,WNW,285,12.0,24.0,56,0.00,,,-99.99,,2013-01-10 01:52:00,
2013-01-09 21:03:00,42.0,28.0,-100.00,West,269,11.0,24.0,55,0.00,,,-99.99,,2013-01-10 02:03:00,
2013-01-09 21:12:00,42.0,28.0,-100.00,WSW,238,11.0,24.0,56,0.00,,,-99.99,,2013-01-10 02:12:00,
2013-01-09 21:22:00,42.0,28.0,-100.00,WNW,296,10.0,24.0,56,0.00,,,-99.99,,2013-01-10 02:22:00,
2013-01-09 21:32:00,41.0,28.0,-100.00,WNW,289,10.0,24.0,59,0.00,,,-99.99,,2013-01-10 02:32:00,
2013-01-09 21:43:00,41.0,28.0,-100.00,WNW,289,10.0,24.0,59,0.00,,,-99.99,,2013-01-10 02:43:00,
2013-01-09 21:52:00,41.0,28.0,-100.00,WNW,289,10.0,24.0,59,0.00,,,-99.99,,2013-01-10 02:52:00,
2013-01-09 22:03:00,44.0,32.0,-100.00,West,265,11.0,24.0,60,0.00,,,-99.99,,2013-01-10 03:03:00,
2013-01-09 22:12:00,41.0,28.0,-100.00,WNW,289,9.0,24.0,59,0.00,,,-99.99,,2013-01-10 03:12:00,
2013-01-09 22:22:00,41.0,28.0,-100.00,NNW,334,9.0,24.0,59,0.00,,,-99.99,,2013-01-10 03:22:00,
2013-01-09 22:33:00,41.0,28.0,-100.00,West,265,7.0,24.0,60,0.00,,,-99.99,,2013-01-10 03:33:00,
2013-01-09 22:43:00,42.0,30.0,-100.00,WNW,282,6.0,24.0,62,0.00,,,-99.99,,2013-01-10 03:43:00,
2013-01-09 22:52:00,42.0,32.0,-100.00,West,272,3.0,24.0,64,0.00,,,-99.99,,2013-01-10 03:52:00,
2013-01-09 23:02:00,40.0,28.0,-100.00,WNW,286,2.0,24.0,63,0.00,,,-99.99,,2013-01-10 04:02:00,
2013-01-09 23:12:00,40.0,30.0,-100.00,West,275,3.0,24.0,64,0.00,,,-99.99,,2013-01-10 04:12:00,
2013-01-09 23:22:00,42.0,32.0,-100.00,WNW,299,2.0,2.0,66,0.00,,,-99.99,,2013-01-10 04:22:00,
2013-01-09 23:32:00,40.0,30.0,-100.00,NW,319,2.0,2.0,67,0.00,,,-99.99,,2013-01-10 04:32:00,
2013-01-09 23:43:00,40.0,30.0,-100.00,NW,312,2.0,2.0,66,0.00,,,-99.99,,2013-01-10 04:43:00,
2013-01-09 23:52:00,39.0,30.0,-100.00,NW,304,3.0,4.0,67,0.00,,,-99.99,,2013-01-10 04:52:00,